Flag for Lebanon Weather past 2 weeks in Sidon, Lebanon

Now
66 °F

Clear.


Feels Like: 66 °F
Forecast: 66 / 83 °F
Wind: 3 mph from Southeast

Location: Beirut Airport

Current Time: Apr 28, 2015 at 7:01:13 AM

Latest Report: Apr 28, 2015 at 6:00 AM


Visibility: N/A

Pressure: 29.92 "Hg

Humidity: 49%

Dew point: 46 °F

Location of SidonLocation

Historic Weather in Sidon — Graph

°F

Sidon temperature yesterday

Maximum temperature yesterday: 82 °F (at 3:00 PM)
Minimum temperature yesterday: 64 °F (at 2:00 AM)
Average temperature yesterday: 73 °F

Past Weeks' High & Low Weather Summary

 TemperatureHumidityPressure
High82 °F (Apr 27, 3:00 PM)83% (Apr 16, 9:00 PM)30.30 "Hg (Apr 16, 9:00 PM)
Low54 °F (Apr 24, 4:00 AM)14% (Apr 20, 10:00 PM)29.80 "Hg (Apr 20, 10:00 PM)
Average65 °F58%30.06 "Hg
* Reported Apr 13 5:00 AM — Apr 28 5:00 AM, Sidon, Weather by CustomWeather, © 2015

Note: Actual official high and low records may vary slightly from our data, if they occured in-between our weather recording intervals... More about our weather records

Advertising

Sidon weather history for previous 24 hours

 ConditionsComfort  
Time TempWeatherWind HumidityBarometerVisibility
5:00 AM
Tue, Apr 28
66 °FClear.3 mph52%29.92 "HgN/A
4:00 AM66 °FClear.3 mph46%29.89 "HgN/A
3:00 AM68 °FClear.No wind43%29.89 "HgN/A
2:00 AM70 °FClear.2 mph43%29.92 "HgN/A
1:00 AM70 °FClear.1 mph40%29.92 "HgN/A
12:00 AM70 °FClear.No wind43%29.92 "HgN/A
11:00 PM
Mon, Apr 27
73 °FClear.3 mph36%29.92 "Hg10 mi
10:00 PM73 °FClear.2 mph41%29.92 "Hg10 mi
9:00 PM75 °FClear.5 mph41%29.92 "Hg10 mi
8:00 PM77 °FSunny.3 mph36%29.92 "Hg10 mi
7:00 PM77 °FSunny.8 mph32%29.92 "HgN/A
6:00 PM81 °FSunny.7 mph26%29.92 "HgN/A
5:00 PM82 °FSunny.9 mph30%29.92 "Hg5 mi
4:00 PM82 °FSunny.8 mph37%29.92 "Hg5 mi
3:00 PM82 °FSunny.9 mph30%29.92 "Hg5 mi
2:00 PM81 °FSunny.7 mph24%29.92 "Hg5 mi
1:00 PM79 °FHaze.3 mph39%29.95 "Hg3 mi
12:00 PM75 °FHaze.6 mph54%29.98 "Hg3 mi
11:00 AM75 °FFog.6 mph54%29.98 "Hg3 mi
10:00 AM70 °FFog.5 mph53%29.98 "Hg3 mi
9:00 AM68 °FHaze.3 mph64%29.95 "Hg3 mi
8:00 AM70 °FScattered clouds.1 mph38%29.95 "Hg4 mi
7:00 AM64 °FScattered clouds.2 mph46%29.95 "HgN/A
Weather by CustomWeather, © 2015

See weather overviewHow to use our weather pages